EW8061 Weather Reports


time (UTC)temp
C
wind
direction
speed
KPH
gust
KPH
rain 1hr
cm
rain 24hr
cm
rain mn
cm
humidity
%
barometer
mb
20260507161552 14 315 0.0 8.0 0.00 0.00 0.00 72 1013.6
20260507160050 13 312 0.0 8.0 0.00 0.00 0.00 74 1013.6
20260507154550 13 309 0.0 8.0 0.00 0.00 0.00 75 1013.7
20260507153058 13 306 1.6 8.0 0.00 0.00 0.00 77 1013.7
20260507151549 13 294 0.0 12.9 0.00 0.00 0.00 75 1013.9
20260507150046 13 283 0.0 6.4 0.00 0.00 0.00 79 1014.0
20260507144545 13 281 0.0 8.0 0.00 0.00 0.00 79 1014.1
20260507143044 13 281 3.2 6.4 0.00 0.00 0.00 79 1014.0
20260507141543 12 281 0.0 4.8 0.00 0.00 0.00 80 1014.1
20260507140056 12 281 0.0 8.0 0.00 0.00 0.00 81 1014.3
20260507134541 12 280 4.8 8.0 0.00 0.00 0.00 81 1014.4
20260507133040 12 280 0.0 8.0 0.00 0.00 0.00 82 1014.5
20260507131544 12 280 1.6 6.4 0.00 0.00 0.00 83 1014.5
20260507130038 12 280 0.0 8.0 0.00 0.00 0.00 84 1014.4
20260507124537 12 276 0.0 6.4 0.00 0.00 0.00 83 1014.3
20260507123036 12 276 0.0 6.4 0.00 0.00 0.00 84 1014.3
20260507121535 12 276 0.0 6.4 0.00 0.00 0.00 81 1014.2
20260507120034 12 276 0.0 0.0 0.00 0.00 0.00 81 1014.2
20260507114534 12 276 0.0 3.2 0.00 0.00 0.00 82 1014.2
20260507113039 12 276 1.6 4.8 0.00 0.00 0.00 81 1014.3
20260507111538 12 276 1.6 9.7 0.00 0.00 0.00 81 1014.2
20260507110032 12 275 0.0 4.8 0.00 0.00 0.00 82 1014.2
20260507104534 12 275 4.8 6.4 0.00 0.00 0.00 80 1014.3
20260507103028 12 275 0.0 4.8 0.00 0.00 0.00 83 1014.3
20260507101542 11 275 0.0 6.4 0.00 0.00 0.00 82 1014.3
20260507100032 11 275 0.0 6.4 0.00 0.00 0.00 84 1014.3
20260507094524 11 275 0.0 0.0 0.00 0.00 0.00 86 1014.2
20260507093028 11 275 1.6 4.8 0.00 0.00 0.00 85 1014.1
20260507091544 11 275 0.0 0.0 0.00 0.00 0.00 87 1014.0
20260507090014 11 275 0.0 4.8 0.00 0.00 0.00 91 1014.0
20260507084510 10 275 1.6 11.3 0.00 0.00 0.00 92 1013.9
20260507083009 10 275 0.0 0.0 0.00 0.00 0.00 93 1013.9
20260507081505 10 275 0.0 0.0 0.00 0.00 0.00 93 1013.9
20260507080100 10 275 0.0 0.0 0.00 0.00 0.00 93 1013.9
20260507074558 9 275 0.0 0.0 0.00 0.00 0.00 93 1013.7
20260507073103 9 275 0.0 3.2 0.00 0.00 0.00 93 1013.6
20260507071556 9 275 0.0 3.2 0.00 0.00 0.00 93 1013.5
20260507070135 9 275 0.0 0.0 0.00 0.00 0.00 93 1013.4
20260507064551 9 275 0.0 6.4 0.00 0.00 0.00 93 1013.3
20260507063049 9 275 0.0 3.2 0.00 0.00 0.00 93 1013.3
20260507061548 9 275 0.0 3.2 0.00 0.00 0.00 94 1013.1
20260507060044 9 275 1.6 6.4 0.00 0.00 0.00 93 1013.0
20260507054546 8 275 0.0 3.2 0.00 0.00 0.00 93 1012.9
20260507053042 8 275 0.0 3.2 0.00 0.00 0.00 93 1012.8
20260507051537 8 275 0.0 0.0 0.00 0.00 0.00 93 1012.6
20260507050035 8 275 0.0 0.0 0.00 0.00 0.00 93 1012.5
20260507044543 8 275 0.0 0.0 0.00 0.00 0.00 93 1012.4
20260507043037 8 275 0.0 0.0 0.00 0.00 0.00 93 1012.4
20260507041531 8 275 0.0 0.0 0.00 0.00 0.00 93 1012.2
20260507040029 8 275 0.0 0.0 0.00 0.00 0.00 93 1012.2
20260507034529 8 275 0.0 4.8 0.00 0.00 0.00 93 1012.1
20260507033027 8 275 0.0 1.6 0.00 0.00 0.00 93 1012.1
20260507031526 9 275 0.0 3.2 0.00 0.00 0.00 93 1012.0
20260507030025 8 275 0.0 3.2 0.00 0.00 0.00 93 1012.0
20260507024528 8 275 0.0 3.2 0.00 0.00 0.00 93 1012.0
20260507023023 8 275 0.0 1.6 0.00 0.00 0.00 93 1011.9
20260507021524 9 275 0.0 4.8 0.00 0.00 0.00 93 1011.8
20260507020022 9 275 0.0 6.4 0.00 0.00 0.00 93 1011.7
20260507014519 9 275 0.0 0.0 0.00 0.00 0.00 93 1011.6
20260507013017 9 275 0.0 1.6 0.00 0.00 0.00 92 1011.5
20260507011514 -17 0.0 0.0 0.00 0.00 0.00 1011.5
20260507010011 9 275 0.0 3.2 0.00 0.00 0.00 92 1011.4
20260507004510 9 275 0.0 4.8 0.00 0.00 0.00 92 1011.3
20260507003010 9 275 0.0 4.8 0.00 0.00 0.00 92 1011.3
20260507001513 9 275 0.0 4.8 0.00 0.00 0.00 92 1011.3
20260507000007 9 275 0.0 0.0 0.00 0.00 0.00 92 1011.2
20260506234507 9 275 0.0 1.6 0.00 0.00 0.00 92 1011.2
20260506233004 9 275 0.0 3.2 0.00 0.00 0.00 92 1011.2
20260506231502 9 275 0.0 0.0 0.00 0.00 0.00 92 1011.2
20260506230001 9 275 0.0 4.8 0.00 0.00 0.00 92 1011.1
20260506224600 9 275 0.0 9.7 0.00 0.00 0.00 92 1011.0
20260506223057 9 279 3.2 11.3 0.00 0.00 0.00 92 1010.9
20260506221556 9 292 1.6 6.4 0.00 0.00 0.00 92 1010.9
20260506220054 9 292 0.0 4.8 0.00 0.00 0.00 92 1010.8
20260506214552 9 294 0.0 8.0 0.00 0.00 0.00 92 1010.7
20260506213050 9 294 0.0 6.4 0.00 0.00 0.00 92 1010.6
20260506211550 9 294 0.0 4.8 0.00 0.00 0.00 92 1010.5
20260506210051 9 294 0.0 4.8 0.00 0.00 0.00 92 1010.5
20260506204548 9 294 0.0 3.2 0.00 0.00 0.00 92 1010.5
20260506203051 9 294 0.0 3.2 0.00 0.00 0.00 92 1010.4
20260506201606 9 294 0.0 3.2 0.00 0.00 0.00 92 1010.3
20260506200044 9 294 0.0 0.0 0.00 0.00 0.00 92 1010.1
20260506194550 9 294 0.0 0.0 0.00 0.00 0.00 92 1009.9
20260506193044 9 294 0.0 0.0 0.00 0.00 0.00 92 1009.6
20260506191542 10 294 0.0 3.2 0.00 0.00 0.00 92 1009.5
20260506190037 9 294 0.0 4.8 0.00 0.00 0.00 92 1009.4
20260506184546 9 294 0.0 3.2 0.00 0.00 0.00 92 1009.3
20260506183039 10 294 0.0 11.3 0.00 0.00 0.00 92 1009.1
20260506181532 10 292 1.6 8.0 0.00 0.00 0.00 92 1008.9
20260506180032 10 293 0.0 8.0 0.00 0.00 0.00 92 1008.8
20260506174530 10 292 1.6 8.0 0.00 0.00 0.00 91 1008.7
20260506173028 10 293 0.0 4.8 0.00 0.00 0.00 91 1008.5
20260506171535 10 293 1.6 12.9 0.00 0.00 0.00 91 1008.4
20260506170024 10 288 4.8 19.3 0.00 0.00 0.00 91 1008.2
20260506164525 10 284 4.8 12.9 0.00 0.00 0.00 91 1008.2
20260506163037 10 284 4.8 14.5 0.00 0.00 0.00 91 1008.1